Location: Joplin, MO
(37.0842°N, 94.5133°W)
Time: 20:44:13
(UTC+02:00)

Transit 2A Rocket - Pass Details

Date: 29 March 2023
Orbit: 584 x 914 km, 66.7° (Epoch: 09 June)

Event Time Altitude Azimuth Distance (km) Brightness Sun altitude
Rises 02:52:35 0° 340° (NNW) 3,554 8.8 -3.9°
Reaches altitude 10° 02:55:28 10° 351° (N) 2,602 8.0 -4.5°
Maximum altitude 03:00:49 31° 52° (NE) 1,506 6.2 -5.6°
Drops below altitude 10° 03:05:56 10° 114° (ESE) 2,485 7.0 -6.6°
Enters shadow 03:06:54 - 118° (ESE) 2,797 7.3 -6.8°
Sets 03:08:36 0° 124° (SE) 3,371 - -7.1°
